User: anonymous   Login
Location: Unspecified
(0.0000°N, 0.0000°E)
Time: 01:22:36
(UTC+00:00)
Language:

NAVSTAR 64 (USA 206) - Orbit

View from above orbital plane
View from above orbital plane
View from above satellite
View from above satellite

Ground track
Ground track

The orbit data is extracted from the following two-line orbital elements,

1 35752U 09043A   16145.21045164  .00000066  00000-0  00000+0 0  9999
2 35752  54.2246 175.2867 0045078  23.2908  68.6997  2.00548962 49612
Epoch (UTC): 24 May 2016 05:03:03
Eccentricity: 0.0045078
inclination: 54.2246°
perigee height: 20063 km
apogee height: 20303 km
right ascension of ascending node: 175.2867°
argument of perigee: 23.2908°
revolutions per day: 2.00548962
mean anomaly at epoch: 68.6997°
orbit number at epoch: 4961

The dashed part of the orbit path shows where the satellite is in the earth's shadow,  

DLR